Regional Weather Roundup
Issued by NWS

Home | Current Version | Previous Version | Graphics & Text | Print | Product List | Glossary On
Versions: 1 2 3 4 5 6 7 8 9 10 11 12 13 14 15 16 17 18 19 20 21 22 23 24 25 26 27 28 29 30 31 32 33 34 35 36 37 38 39 40 41 42 43 44 45 46 47 48 49 50
329
ASUS45 KABQ 271110
RWRNM
NEW MEXICO REGIONAL WEATHER ROUNDUP
NATIONAL WEATHER SERVICE ALBUQUERQUE NM
500 AM MDT FRI MAY 27 2016

NOTE: "FAIR" MEANS FEW OR NO CLOUDS BELOW 12,000 FEET AGL WITH NO
       SIGNIFICANT WEATHER OR OBSTRUCTIONS TO VISION.

      THIS PRODUCT IS RELEASED AS TWO VERSIONS.  ONE VERSION NEAR
      THE TOP OF THE HOUR CONTAINING PRELIMINARY DATA FROM ALBUQUERQUE
      AND OTHER STATIONS.  A FINAL VERSION WITH ADDITIONAL DATA IS
      ISSUED ABOUT 10 MINUTES AFTER THE HOUR.

NMZ501-503-504-510>518-271200-
NORTHWEST PLATEAU/NORTHCENTRAL MOUNTAINS

CITY           SKY/WX    TMP DP  RH WIND       PRES   REMARKS
FARMINGTON     FAIR      45  31  58 W8        29.92S
LOS ALAMOS     CLOUDY    47  29  48 CALM      29.93S
SANTA FE       FAIR      45  24  43 W6        29.90R
TAOS           CLOUDY    45  28  53 W12       29.93S
ANGEL FIRE     CLOUDY    38  27  64 SW3       29.93F

$$
NMZ402-403-502-505>509-271200-
WESTCENTRAL MOUNTAINS/SOUTHWEST MOUNTAINS

CITY           SKY/WX    TMP DP  RH WIND       PRES   REMARKS
GALLUP         FAIR      35  26  69 NE3       30.01R
GRANTS         FAIR      37  26  65 NW7       30.00R WCI  31
SILVER CITY      N/A     41  21  45 N10       30.00S

$$
NMZ407-409-411-412-271200-
SOUTHERN DESERTS

CITY           SKY/WX    TMP DP  RH WIND       PRES   REMARKS
LORDSBURG      FAIR      45  19  36 CALM      29.97S
DEMING         FAIR      50  22  33 SW6       29.96R
LAS CRUCES     FAIR      49  18  29 W10       29.95R
HOLLOMAN AFB   FAIR      49  15  25 E9        29.89R
ALAMOGORDO     FAIR      55  18  22 NE5       29.91R
T OR C         FAIR      56  26  31 NW8       29.92S

$$
NMZ519>523-271200-
CENTRAL VALLEYS/CENTRAL HIGHLANDS

CITY           SKY/WX    TMP DP  RH WIND       PRES   REMARKS
ALBUQUERQUE    FAIR      46  22  38 SE8       29.92R
DOUBLE EAGLE   FAIR      43  25  49 W8        29.93S
MORIARTY ARPT  FAIR      38  21  51 W8        29.93R WCI  32
CLINES CORNERS FAIR      38  21  50 W13       29.91R WCI  30
BELEN          FAIR      49  25  39 W7        29.93R
SOCORRO        FAIR      57  26  30 W6        29.92S

$$
NMZ524>526-539-540-271200-
SOUTHCENTRAL MOUNTAINS

CITY           SKY/WX    TMP DP  RH WIND       PRES   REMARKS
RUIDOSO          N/A     46  21  36 SW8       29.98F

$$
NMZ527>531-271200-
NORTHEAST HIGHLANDS/NORTHEAST PLAINS

CITY           SKY/WX    TMP DP  RH WIND       PRES   REMARKS
LAS VEGAS      FAIR      37  21  52 SE8       29.87F WCI  31
RATON          FAIR      39  32  76 NE8       29.85R WCI  33
CLAYTON        FAIR      49  38  65 NW17      29.82R

$$
NMZ532>537-271200-
EASTCENTRAL PLAINS

CITY           SKY/WX    TMP DP  RH WIND       PRES   REMARKS
TUCUMCARI      FAIR      45  36  70 NE3       29.82R
CANNON AFB     FAIR      47  31  54 N7        29.83R
CLOVIS AIRPORT FAIR      46  32  57 N8        29.82R

$$
NMZ028-029-538-271200-
SOUTHEAST PLAINS

CITY           SKY/WX    TMP DP  RH WIND       PRES   REMARKS
ROSWELL        FAIR      55  17  22 W8        29.83R
ARTESIA        FAIR      55  16  21 W12       29.83S
CARLSBAD       FAIR      61  14  16 W12       29.82R
HOBBS          FAIR      57  16  19 W12       29.83R


$$




USA.gov is the U.S. government's official web portal to all federal, state and local government web resources and services.